Temperature
16 17 17 18 18 19 19 18 18 19 19 17 18 19 20 20 19 19 19 20 19 19 19 18 18 18 18 17 16 16 15 14 13 12 11 11 10 10 10 10 9 9 9 9
16 17 18 19 18 18 18 17 18 18 18 17 18 18 19 20 20 19 19 20 20 19 18 18 18 18 18 17 17 16 15 14 14 13 12 11 10 10 10 10 10 9 9 9
17 18 18 17 17 16 17 17 18 18 18 17 16 18 19 20 19 18 18 18 18 18 18 17 18 18 18 17 17 16 15 14 14 13 12 11 10 10 10 10 10 9 9 9
17 18 16 16 17 17 17 18 17 17 17 17 17 17 19 20 19 20 19 19 18 17 16 16 17 17 17 17 17 16 15 14 13 13 12 11 11 10 10 10 10 10 9 9
16 17 16 16 17 17 17 17 16 16 16 17 17 16 18 19 19 20 21 19 18 16 15 15 16 17 17 17 16 16 15 14 13 12 12 11 11 10 10 10 10 10 9 9
17 16 17 17 17 17 16 15 15 15 16 15 17 17 18 20 20 20 20 19 17 15 14 14 14 15 16 16 16 15 14 14 13 12 12 11 11 11 10 10 10 10 9 9
15 15 15 16 16 15 16 16 15 15 15 16 17 16 18 20 20 19 19 18 17 15 13 13 13 14 15 15 15 15 14 14 13 12 12 11 11 11 11 10 10 10 10 9
15 15 15 15 16 16 16 16 16 16 16 17 15 16 19 20 19 17 16 16 15 14 13 13 13 14 14 15 15 14 14 13 13 12 12 11 11 11 10 10 10 10 10 9
16 16 16 16 16 17 15 16 17 17 16 16 17 17 18 19 19 18 18 16 15 14 13 13 12 13 13 14 14 14 14 13 13 12 12 11 11 11 11 10 10 10 10 9
17 16 15 14 14 16 17 16 15 15 15 15 17 17 18 19 20 20 19 18 16 14 13 12 12 12 13 13 14 13 13 13 13 12 12 11 11 11 10 10 10 10 10 9
17 16 13 13 14 15 14 15 16 16 16 16 16 18 19 19 19 19 19 17 15 14 13 13 12 12 13 13 13 13 13 12 12 12 12 11 11 11 10 10 10 10 9 9
16 16 14 14 15 16 16 16 16 15 15 16 16 18 19 18 18 17 17 16 15 14 14 13 13 13 13 13 13 13 13 12 12 12 11 11 11 10 10 10 10 9 9 9
15 14 13 12 13 13 14 16 16 16 16 16 15 17 19 17 17 16 16 16 15 14 14 13 13 13 13 13 13 12 12 12 12 11 11 11 11 10 10 10 9 9 9 8
15 14 14 14 15 14 14 14 15 15 15 16 16 17 18 18 18 18 17 17 16 15 14 14 14 14 13 13 13 13 12 12 12 11 11 11 10 10 10 9 9 9 8 8
13 13 14 15 15 15 14 14 14 15 16 16 17 17 18 19 19 19 18 17 15 14 15 15 15 14 14 14 13 13 12 12 12 11 11 11 10 10 9 9 9 8 8 7
12 12 13 13 13 14 14 14 15 15 15 16 16 17 18 19 18 18 17 17 15 15 15 16 16 15 15 14 14 13 13 12 12 11 11 10 10 9 9 9 8 8 7 7
11 11 12 12 13 12 12 14 14 15 15 16 16 17 18 17 17 17 17 16 16 15 16 16 16 16 16 15 15 14 13 12 12 11 10 10 9 9 9 8 8 7 7 6
10 11 11 12 11 10 14 16 16 15 15 16 16 17 17 17 17 16 16 16 16 15 15 16 16 16 16 15 14 14 13 12 11 11 10 9 9 9 8 8 7 7 6 6
11 10 10 10 11 12 13 13 14 14 15 16 16 16 16 15 14 15 15 15 15 15 15 16 16 16 15 15 14 13 12 12 11 10 10 9 9 8 8 7 7 6 6 5
10 10 10 9 10 11 14 14 14 14 14 16 16 15 15 14 14 16 16 15 15 15 15 15 15 15 15 14 14 13 12 11 11 10 9 9 8 8 7 7 6 6 5 5
8 9 9 9 11 13 15 13 13 13 15 16 15 15 14 14 15 15 15 15 15 15 15 15 14 14 14 14 13 12 12 11 10 9 8 8 7 7 6 6 5 5 5 4
9 9 9 10 10 12 12 11 14 16 15 14 14 14 14 14 14 14 14 14 14 14 14 14 14 13 13 12 12 11 11 10 9 8 8 7 6 6 5 5 5 4 4 3
10 11 11 11 13 14 12 13 14 14 14 14 14 14 14 13 13 13 13 13 13 13 13 13 13 12 12 11 11 10 10 9 8 7 7 6 6 5 5 5 4 4 3 3
9 10 10 11 12 12 11 12 13 13 14 15 15 15 14 14 14 13 13 13 13 13 12 12 12 11 11 10 10 9 9 8 7 7 6 6 5 5 4 4 4 3 3 2
9 8 10 11 11 11 11 11 12 13 13 14 14 14 14 14 14 13 13 13 12 12 11 11 11 11 10 9 9 8 8 7 7 6 6 5 5 4 4 3 3 3 2 2
8 9 10 11 11 11 13 12 13 13 13 13 13 13 13 14 14 13 13 12 12 11 11 10 10 9 9 8 8 7 7 6 6 6 5 4 4 3 3 3 2 2 1 1
Wind_Speed
13 14 20 21 22 17 13 13 15 13 7 8 15 20 20 19 17 19 19 19 18 18 16 13 13 14 15 16 18 19 20 20 17 14 13 12 11 10 8 9 11 12 11 11
13 24 24 19 18 18 17 18 17 14 8 8 15 22 22 20 21 21 21 21 20 18 15 13 14 14 16 17 18 19 20 20 19 16 14 12 11 8 8 8 10 11 11 11
27 18 19 18 18 19 21 21 19 17 12 11 14 19 18 14 15 16 18 19 19 18 18 16 16 16 16 17 18 17 20 20 20 18 13 10 8 6 6 8 7 10 11 11
24 17 14 20 22 22 22 18 17 16 15 14 9 14 15 14 16 17 17 16 16 15 16 16 16 17 17 16 16 18 19 20 19 18 16 18 13 11 11 10 9 9 10 10
17 19 19 23 23 22 17 10 13 14 16 18 16 13 14 11 15 15 13 11 11 11 13 15 16 16 16 15 15 16 18 19 19 19 19 19 16 13 10 10 11 10 9 9
17 12 18 21 16 16 10 6 4 6 10 17 18 15 13 10 12 12 9 7 7 7 10 12 13 13 13 14 14 15 17 18 18 19 19 19 18 15 14 13 12 10 8 7
19 13 9 9 13 14 15 12 8 9 10 12 7 11 12 12 12 12 13 12 9 6 8 10 13 15 15 16 16 16 18 18 18 19 18 18 18 17 17 15 13 11 9 8
23 19 19 14 18 16 21 21 14 10 10 8 6 11 10 10 10 11 12 11 9 6 7 10 13 15 15 16 17 17 18 18 18 18 17 16 16 13 12 14 12 12 10 9
20 19 15 19 15 17 16 19 20 14 10 10 10 9 10 11 11 9 8 7 7 6 7 10 12 14 15 16 17 18 18 18 18 18 17 16 16 14 13 13 12 10 9 9
17 16 12 13 9 15 15 14 10 12 10 13 13 15 10 11 12 9 6 5 5 4 6 9 11 13 14 14 15 16 17 17 17 17 15 12 14 14 13 12 13 11 11 11
19 15 10 14 19 23 16 18 13 13 13 10 11 9 8 12 9 6 5 5 4 4 6 9 11 12 13 13 14 15 16 16 16 16 15 15 14 13 13 12 13 12 11 12
22 15 13 16 12 15 23 23 23 17 14 13 13 10 5 8 7 6 6 4 3 3 5 8 10 12 13 14 15 15 15 16 16 15 15 15 14 13 13 13 13 13 12 12
18 13 14 10 9 10 19 24 26 23 18 17 18 12 5 6 7 7 7 5 3 3 6 8 10 12 13 14 15 15 16 16 15 15 15 15 15 15 14 14 13 13 12 12
16 15 20 22 13 16 19 23 24 25 19 23 26 23 13 10 10 9 8 7 5 5 7 9 10 12 13 14 15 16 16 15 15 15 16 16 16 15 14 14 13 13 12 12
12 18 21 20 13 14 20 24 27 29 30 25 25 25 23 20 18 15 12 9 7 7 8 10 12 12 13 14 15 15 16 16 16 16 16 16 15 14 14 13 13 12 11 11
13 14 19 19 15 15 16 22 27 31 30 31 28 26 21 20 19 18 17 13 12 11 10 10 12 13 14 16 16 16 16 16 16 17 16 15 14 14 14 13 13 12 11 10
14 12 14 17 16 13 21 26 25 25 27 25 29 28 20 18 18 19 18 15 14 13 11 10 12 13 14 15 16 17 16 16 16 16 15 15 15 14 14 13 13 12 12 11
16 16 9 9 12 15 16 16 24 25 25 26 24 20 20 21 19 17 16 15 14 12 10 10 10 11 11 12 13 14 14 15 16 16 15 15 15 14 14 13 13 12 11 11
19 16 9 8 13 14 10 9 17 22 24 25 26 24 20 13 10 14 14 14 14 11 9 8 8 8 9 11 13 14 14 15 15 16 16 15 15 15 14 14 13 12 10 10
15 16 12 10 12 15 13 13 12 13 17 18 22 23 20 12 11 12 9 9 9 7 5 5 6 7 9 10 12 14 14 15 15 15 14 14 14 14 14 14 12 10 10 9
15 14 18 15 14 14 7 10 15 14 11 9 17 19 18 17 15 6 5 5 5 5 5 6 7 7 8 10 13 13 13 13 12 12 12 13 13 13 13 11 10 9 8 7
17 14 16 15 15 13 9 14 16 10 4 6 10 14 15 16 11 6 6 6 6 6 6 7 7 7 8 10 12 12 11 10 10 11 11 11 11 10 9 10 9 8 8 7
15 15 11 13 14 4 13 13 11 4 6 7 7 9 11 11 10 9 7 7 7 7 7 7 8 9 8 8 9 10 9 10 11 11 11 10 10 9 9 9 9 7 7 6
9 8 9 10 12 10 11 10 8 6 6 6 6 7 10 10 10 10 8 8 8 8 8 8 9 9 8 8 8 9 10 11 11 11 10 9 9 8 8 7 7 7 7 6
8 9 11 13 8 7 11 13 12 9 6 5 4 6 9 10 9 10 9 9 9 8 7 8 8 9 9 9 8 9 10 11 11 10 8 8 7 7 7 6 6 7 7 7
10 11 15 14 11 10 12 12 12 11 11 10 8 6 6 8 9 9 8 8 9 9 9 8 8 9 9 9 9 9 9 10 10 8 7 6 6 5 5 4 3 5 7 9
Wind_Direction
189 206 215 214 218 233 240 242 249 254 245 245 263 272 276 277 270 265 263 258 251 245 239 219 206 201 197 196 196 194 191 190 187 186 186 186 188 186 185 187 188 188 190 191
197 221 222 221 221 227 234 244 254 266 255 254 276 278 278 273 268 263 262 259 253 247 231 212 201 196 194 193 193 192 190 188 187 187 186 188 183 183 179 176 182 185 187 188
211 220 215 213 214 220 231 240 250 259 269 257 283 280 269 267 264 262 259 257 255 245 233 215 202 197 193 192 190 188 188 186 186 184 178 168 162 158 170 177 179 183 184 185
223 218 199 208 217 219 234 234 246 256 266 273 272 288 283 276 273 267 262 255 251 243 233 219 203 196 193 190 185 185 184 184 184 181 181 180 184 186 188 183 178 175 178 180
217 210 204 213 219 217 233 228 230 247 260 270 260 270 278 271 268 271 269 264 257 245 230 217 205 196 189 182 179 180 180 182 183 184 186 188 191 189 179 173 172 172 170 174
225 209 215 223 221 214 184 148 178 228 253 260 254 251 274 255 258 275 282 282 278 253 229 215 201 189 181 175 175 176 178 181 182 185 188 191 190 181 173 174 173 172 167 170
216 213 206 203 193 187 191 207 226 234 232 250 227 237 258 256 256 269 281 288 290 262 225 204 190 184 179 176 176 176 178 180 182 185 189 191 189 184 182 180 179 174 172 174
210 216 204 197 201 193 201 207 216 232 242 247 199 236 255 262 268 268 270 277 279 253 218 201 193 187 182 179 178 178 180 180 182 185 188 188 185 186 185 183 179 180 180 177
210 218 198 199 202 195 196 213 226 246 262 266 246 246 271 269 263 258 266 270 267 244 215 201 192 188 183 182 182 181 180 181 182 184 184 184 184 183 179 177 176 177 174 168
218 217 192 185 184 204 208 195 196 217 238 246 251 246 245 247 256 267 281 287 280 236 208 198 192 189 185 184 182 182 183 182 182 182 182 182 183 180 175 172 174 173 170 168
215 211 183 182 197 194 191 196 203 212 227 238 251 244 222 235 246 259 278 295 286 233 204 195 191 187 184 181 181 183 183 182 182 183 182 180 179 176 174 175 175 172 170 172
208 214 209 204 206 216 205 204 204 211 217 229 248 253 194 227 241 249 266 287 281 224 199 192 188 184 184 184 184 185 185 185 184 182 181 180 176 174 176 177 175 173 173 176
193 205 205 202 214 209 214 216 215 221 232 231 235 245 193 225 239 241 251 266 257 206 190 187 188 190 190 189 189 189 189 188 184 181 180 179 177 178 180 178 175 175 175 176
195 207 211 217 212 196 206 211 214 217 228 235 236 242 234 237 245 249 253 264 259 224 202 197 196 197 196 194 193 192 191 188 183 183 183 183 182 182 180 177 175 176 176 178
204 217 221 230 224 196 206 209 210 217 225 235 242 243 243 245 253 260 266 266 257 240 218 208 205 201 198 197 196 195 193 188 184 185 187 187 183 180 176 175 175 176 178 181
208 221 219 223 217 212 219 219 216 220 228 237 246 251 249 251 254 257 258 256 253 249 232 218 210 205 202 201 198 194 193 189 186 188 188 183 179 177 176 176 175 176 179 181
202 209 207 220 212 218 233 225 220 223 226 232 239 246 248 246 245 248 251 251 249 249 238 222 213 209 206 202 198 195 192 186 187 190 187 182 179 178 178 175 176 180 183 185
203 210 211 208 194 222 238 221 220 227 231 230 238 246 245 245 247 250 249 248 248 243 236 226 216 210 206 198 194 191 186 185 187 188 186 182 180 180 178 178 182 184 186 191
205 201 200 201 213 235 236 210 208 216 233 231 234 240 244 245 252 252 242 237 240 241 235 224 211 202 191 187 182 178 180 183 186 189 187 184 181 180 179 183 186 185 188 195
202 205 203 206 215 227 229 195 191 202 240 232 225 232 233 214 232 244 222 213 223 226 213 197 182 175 174 173 171 173 178 182 188 189 185 181 181 182 183 185 184 185 191 197
192 201 209 213 223 237 217 161 160 195 233 207 210 220 217 212 225 225 168 176 185 180 173 163 159 161 164 163 165 171 175 185 184 177 175 176 180 182 183 181 182 184 187 195
193 195 205 210 220 227 169 161 187 211 184 182 196 206 208 213 217 195 174 167 157 151 150 150 147 144 148 158 163 167 173 169 163 164 167 171 174 174 176 177 180 184 188 200
203 201 202 208 221 217 173 193 206 192 189 193 193 198 195 196 200 194 188 178 166 158 151 148 143 137 142 156 162 160 156 152 154 158 163 165 167 171 175 178 180 185 193 207
214 210 209 218 225 217 207 213 216 209 206 197 192 182 179 185 185 182 177 170 164 159 155 150 147 144 144 149 151 147 146 151 154 157 159 161 166 171 176 179 184 191 201 213
211 198 212 225 228 220 224 222 221 217 214 194 184 188 187 179 178 178 175 172 166 158 155 155 153 148 144 144 142 142 149 152 153 154 157 162 169 173 179 188 199 207 215 218
205 205 211 224 217 212 224 226 220 213 214 205 191 187 191 187 178 171 169 165 161 158 154 152 149 145 144 144 143 147 153 155 153 155 161 166 171 176 184 195 219 227 234 238
Height
1497 1498 1494 1494 1496 1497 1498 1501 1501 1499 1500 1503 1498 1493 1489 1488 1488 1486 1484 1483 1482 1482 1484 1486 1487 1489 1492 1495 1498 1502 1505 1509 1513 1517 1521 1525 1529 1533 1535 1538 1540 1542 1544 1545
1493 1488 1485 1489 1493 1497 1498 1500 1498 1496 1499 1501 1494 1488 1482 1481 1479 1478 1476 1474 1474 1475 1477 1478 1480 1482 1485 1488 1492 1496 1499 1503 1507 1512 1516 1521 1525 1529 1532 1534 1537 1539 1541 1542
1478 1476 1482 1488 1492 1495 1495 1495 1495 1496 1494 1496 1496 1483 1474 1471 1471 1470 1468 1466 1466 1467 1468 1470 1472 1475 1478 1482 1486 1490 1494 1498 1503 1508 1512 1517 1521 1525 1528 1530 1533 1535 1537 1539
1473 1475 1481 1484 1485 1487 1489 1489 1493 1495 1497 1491 1493 1485 1470 1465 1464 1462 1460 1458 1458 1458 1460 1462 1464 1467 1471 1476 1480 1485 1489 1493 1498 1503 1507 1511 1514 1518 1522 1526 1529 1532 1534 1535
1466 1469 1474 1476 1476 1481 1482 1486 1492 1494 1494 1491 1487 1488 1467 1460 1459 1453 1451 1451 1451 1452 1453 1455 1457 1461 1466 1470 1475 1479 1484 1488 1493 1498 1502 1507 1512 1515 1519 1522 1525 1528 1530 1532
1460 1466 1468 1467 1472 1478 1484 1490 1495 1495 1492 1490 1478 1481 1463 1454 1450 1446 1446 1447 1447 1447 1447 1449 1451 1455 1460 1464 1469 1474 1479 1483 1488 1493 1498 1502 1507 1511 1514 1517 1521 1523 1526 1528
1461 1464 1465 1466 1471 1478 1480 1485 1492 1490 1488 1477 1472 1475 1457 1444 1444 1444 1444 1444 1443 1443 1442 1443 1446 1449 1454 1459 1464 1469 1474 1478 1483 1488 1493 1498 1503 1507 1510 1513 1516 1519 1521 1523
1452 1455 1457 1459 1459 1466 1470 1473 1479 1480 1474 1466 1476 1468 1447 1440 1442 1442 1442 1441 1439 1439 1438 1439 1441 1445 1449 1454 1459 1464 1469 1474 1479 1484 1489 1494 1498 1502 1506 1509 1513 1515 1518 1520
1435 1441 1445 1450 1452 1457 1465 1466 1463 1468 1468 1471 1459 1452 1445 1438 1436 1437 1437 1437 1436 1435 1435 1436 1438 1442 1446 1450 1455 1460 1465 1470 1475 1479 1485 1489 1494 1498 1502 1505 1509 1511 1514 1516
1426 1434 1442 1448 1453 1453 1453 1457 1467 1470 1470 1467 1453 1448 1442 1433 1430 1431 1432 1433 1432 1432 1432 1433 1435 1439 1443 1448 1453 1457 1462 1466 1471 1476 1480 1485 1489 1493 1497 1501 1504 1507 1509 1512
1424 1431 1443 1446 1444 1444 1452 1456 1454 1456 1454 1454 1450 1440 1428 1427 1427 1429 1430 1430 1430 1429 1430 1431 1433 1436 1440 1445 1449 1453 1458 1463 1467 1472 1476 1481 1485 1489 1493 1497 1500 1503 1505 1507
1419 1423 1432 1436 1435 1435 1437 1438 1443 1449 1448 1446 1442 1433 1422 1426 1427 1428 1428 1428 1427 1427 1428 1429 1431 1434 1437 1441 1445 1450 1454 1459 1463 1468 1472 1476 1481 1485 1488 1492 1495 1498 1501 1503
1416 1421 1431 1437 1440 1438 1434 1431 1433 1435 1436 1437 1440 1431 1421 1424 1425 1426 1426 1426 1426 1425 1426 1427 1429 1431 1434 1438 1442 1446 1450 1455 1459 1463 1468 1472 1476 1480 1484 1487 1490 1493 1496 1498
1409 1410 1413 1413 1409 1417 1426 1427 1428 1431 1432 1427 1424 1421 1419 1420 1420 1421 1422 1423 1423 1423 1423 1424 1426 1428 1431 1434 1438 1442 1446 1450 1454 1459 1463 1467 1471 1475 1479 1483 1486 1489 1491 1494
1407 1407 1404 1402 1404 1409 1413 1417 1421 1422 1417 1417 1412 1414 1414 1415 1416 1416 1418 1419 1420 1420 1420 1421 1422 1424 1427 1430 1433 1437 1441 1445 1449 1453 1458 1462 1466 1470 1474 1478 1481 1484 1487 1489
1404 1403 1403 1405 1407 1409 1410 1409 1410 1412 1411 1409 1409 1407 1406 1410 1412 1413 1414 1415 1415 1415 1416 1416 1418 1420 1422 1424 1427 1431 1435 1439 1443 1448 1452 1457 1461 1465 1469 1473 1476 1479 1481 1483
1401 1402 1402 1401 1404 1410 1407 1399 1401 1402 1401 1403 1402 1399 1402 1405 1406 1407 1408 1409 1409 1409 1410 1411 1413 1415 1417 1419 1422 1425 1429 1433 1438 1442 1446 1451 1455 1459 1463 1467 1471 1473 1476 1478
1396 1398 1399 1398 1405 1410 1387 1384 1388 1391 1392 1394 1393 1393 1395 1397 1399 1400 1402 1403 1403 1404 1405 1406 1408 1410 1412 1415 1417 1421 1424 1428 1432 1436 1441 1445 1449 1454 1458 1462 1465 1468 1470 1472
1389 1394 1399 1398 1396 1387 1382 1383 1382 1385 1384 1383 1386 1387 1390 1393 1396 1394 1394 1396 1397 1398 1400 1401 1403 1405 1408 1410 1412 1416 1419 1423 1427 1430 1434 1439 1443 1448 1452 1455 1459 1462 1465 1467
1384 1386 1393 1392 1389 1382 1368 1372 1376 1382 1379 1373 1377 1379 1383 1390 1391 1386 1387 1389 1391 1393 1395 1397 1399 1401 1403 1406 1408 1411 1414 1418 1421 1425 1429 1434 1438 1442 1446 1450 1454 1457 1459 1461
1379 1382 1383 1383 1379 1366 1362 1368 1374 1380 1368 1364 1367 1371 1376 1380 1379 1381 1383 1385 1387 1388 1390 1392 1395 1397 1400 1402 1405 1408 1411 1414 1418 1421 1425 1430 1434 1438 1442 1445 1449 1452 1454 1456
1364 1370 1373 1374 1372 1365 1361 1366 1364 1358 1358 1360 1362 1365 1368 1371 1374 1377 1379 1381 1383 1385 1387 1389 1392 1394 1397 1399 1402 1405 1408 1411 1415 1418 1422 1425 1429 1433 1437 1440 1443 1446 1448 1449
1352 1353 1354 1356 1353 1350 1353 1354 1353 1355 1356 1358 1359 1361 1364 1367 1370 1373 1376 1378 1380 1383 1385 1387 1390 1392 1395 1398 1401 1403 1406 1409 1412 1415 1418 1422 1426 1429 1433 1436 1438 1441 1442 1443
1348 1350 1351 1351 1348 1348 1349 1349 1351 1352 1354 1355 1357 1359 1361 1363 1366 1370 1373 1375 1378 1380 1383 1385 1388 1391 1393 1396 1399 1402 1404 1407 1410 1413 1416 1419 1423 1426 1429 1431 1434 1435 1436 1437
1343 1347 1346 1344 1343 1345 1345 1345 1347 1349 1351 1353 1355 1357 1359 1361 1364 1367 1370 1373 1375 1378 1381 1384 1386 1389 1392 1395 1397 1400 1403 1406 1408 1411 1414 1417 1420 1422 1425 1427 1429 1430 1431 1431
1337 1338 1338 1335 1337 1340 1339 1341 1344 1346 1347 1350 1353 1355 1357 1359 1362 1365 1367 1370 1373 1376 1379 1382 1385 1388 1391 1393 1396 1399 1402 1405 1407 1409 1412 1414 1416 1419 1420 1422 1423 1423 1424 1424